Voltar ao catálogo

HYPSO-1

AtivoCiênciaPO
NORAD 51053·PAYLOAD·🇳🇴 Norway

Lançado Jan 13, 2022 de Cape Canaveral Space Force Station

Loading…

Próximas Passagens (próximas 24 horas)

TLE

AtualizadoSource: Space-Track

Época: Sep 13, 2026, 21:42 UTC

1 51053U 22002BX  26256.90460767  .00144244  00000-0  55291-3 0  9994
2 51053  97.2720 342.5608 0003749 266.7223  93.3620 15.87039366260900

Acompanhe HYPSO-1 em tempo real com AllMySat

Download on the App Store